Temp
4 4 4 3 3 3 3 3 3 3 2 2 2 2 2 2 2 2 2 2 2 2 2 2 3 3 3 3 3 3 3 3 3 3 3 3 3 3 2 2 2 2 2 2 2 2 2 1 1 1 0 0 0 0 1 1 1 1 1 0 0 0 0 0 1 1 1 1 1
4 3 3 3 3 3 3 2 2 2 2 2 2 2 2 2 2 2 2 2 2 2 2 2 2 2 2 3 3 3 3 3 3 3 3 3 3 2 2 2 2 2 2 2 2 2 2 1 1 0 0 -0 -0 0 0 0 0 0 0 0 0 -0 -0 0 0 1 1 1 1
3 3 3 3 3 2 2 2 2 2 2 2 2 2 2 2 2 2 2 2 2 2 2 2 2 2 2 2 2 2 2 2 2 2 2 2 3 2 2 2 2 2 2 1 1 1 1 1 1 0 -0 -0 -0 -0 0 0 0 0 -0 -0 -0 -0 -0 -0 -0 -0 0 0 1
3 3 2 2 2 2 2 2 2 2 2 1 2 2 2 2 2 2 2 2 2 2 2 2 2 2 2 2 2 2 2 2 2 2 2 2 2 2 2 2 2 1 1 1 1 1 1 1 0 0 -0 -0 -1 -0 -0 0 0 -0 -0 -0 -0 -1 -1 -1 -1 -0 -0 -0 -0
2 2 2 2 2 2 1 1 1 1 1 1 1 1 1 1 1 1 1 1 1 1 1 1 2 2 2 2 2 2 2 2 2 2 2 2 2 2 2 2 1 1 1 1 1 0 0 0 -0 -0 -1 -1 -1 -0 -0 0 -0 -0 -0 -0 -1 -1 -1 -1 -1 -1 -1 -1 -1
2 2 2 1 1 1 1 1 1 1 1 1 1 1 1 1 1 1 1 1 1 1 1 1 1 1 1 1 1 1 1 2 2 1 1 1 1 1 1 1 1 1 1 1 0 0 -0 -0 -1 -1 -1 -1 -1 -0 -0 -0 -0 -0 -0 -1 -1 -1 -1 -1 -1 -1 -2 -2 -1
2 1 1 1 1 1 1 1 1 1 1 1 1 1 1 1 1 1 1 1 1 1 1 1 1 1 1 1 1 1 1 1 1 1 1 1 1 1 1 1 1 1 1 0 0 -0 -0 -1 -1 -1 -1 -1 -1 -1 -0 -0 -0 -1 -1 -1 -1 -1 -1 -1 -2 -2 -2 -2 -2
1 1 1 1 1 1 1 1 1 1 1 1 1 1 1 1 1 1 1 1 0 0 0 0 0 0 0 0 0 0 0 0 0 0 0 0 1 1 1 1 1 1 0 0 -0 -1 -1 -1 -2 -2 -2 -2 -1 -1 -1 -1 -1 -1 -1 -1 -1 -1 -1 -2 -2 -2 -2 -2 -2
1 1 1 1 1 1 1 1 1 1 1 1 1 1 1 1 0 0 0 0 0 -0 -0 -0 -0 -0 -0 -0 -0 -0 -0 -0 -0 -0 -0 -0 0 0 0 0 0 0 0 -0 -1 -1 -1 -2 -2 -2 -2 -2 -2 -1 -1 -1 -1 -1 -1 -1 -1 -1 -2 -2 -2 -2 -2 -2 -2
1 1 1 1 1 1 1 1 1 1 1 1 1 0 0 0 0 -0 -0 -0 -0 -1 -1 -1 -1 -1 -1 -1 -1 -1 -1 -1 -1 -1 -1 -1 -0 -0 -0 -0 -0 -0 -0 -1 -1 -1 -2 -2 -2 -2 -2 -2 -2 -2 -1 -1 -1 -1 -1 -1 -1 -2 -2 -2 -2 -2 -2 -2 -2
1 1 1 1 1 1 1 1 0 0 0 0 0 0 0 -0 -0 -0 -1 -1 -1 -1 -1 -1 -1 -2 -2 -2 -2 -2 -2 -2 -2 -2 -1 -1 -1 -1 -1 -1 -1 -1 -1 -1 -1 -2 -2 -3 -3 -3 -2 -2 -2 -2 -2 -2 -2 -2 -2 -2 -2 -2 -2 -2 -2 -2 -2 -2 -3
1 1 1 1 1 0 0 0 0 -0 -0 -0 -0 -0 -0 -1 -1 -1 -1 -1 -2 -2 -2 -2 -2 -2 -2 -2 -2 -2 -2 -2 -2 -2 -2 -2 -2 -1 -1 -1 -1 -1 -1 -1 -2 -2 -3 -3 -3 -3 -3 -2 -2 -2 -2 -2 -2 -2 -2 -2 -2 -2 -2 -2 -2 -2 -2 -3 -3
1 1 1 0 0 0 -0 -0 -0 -0 -1 -1 -1 -1 -1 -1 -1 -1 -2 -2 -2 -2 -2 -2 -2 -3 -3 -3 -3 -3 -3 -3 -3 -3 -3 -3 -2 -2 -2 -2 -2 -2 -2 -2 -2 -3 -3 -3 -3 -3 -3 -3 -3 -2 -2 -3 -3 -3 -3 -2 -2 -2 -2 -2 -2 -2 -2 -3 -3
1 0 0 0 -0 -0 -0 -1 -1 -1 -1 -1 -1 -1 -1 -1 -2 -2 -2 -2 -2 -3 -3 -3 -3 -3 -3 -3 -3 -3 -3 -3 -4 -3 -3 -3 -3 -3 -3 -3 -3 -3 -3 -3 -3 -3 -4 -4 -4 -4 -3 -3 -3 -2 -2 -3 -3 -3 -3 -3 -3 -3 -2 -2 -2 -2 -3 -3 -3
0 0 -0 -0 -0 -1 -1 -1 -1 -1 -1 -1 -1 -2 -2 -2 -2 -2 -2 -3 -3 -3 -3 -3 -3 -3 -4 -4 -4 -4 -4 -4 -4 -4 -4 -4 -4 -4 -3 -3 -3 -3 -3 -4 -4 -4 -4 -4 -4 -4 -4 -3 -3 -3 -3 -3 -3 -3 -3 -3 -3 -3 -3 -2 -2 -3 -3 -3 -3
0 -0 -0 -1 -1 -1 -1 -1 -1 -2 -2 -2 -2 -2 -2 -2 -2 -3 -3 -3 -3 -3 -4 -4 -4 -4 -4 -4 -4 -4 -4 -5 -5 -5 -5 -5 -5 -4 -4 -4 -4 -4 -4 -4 -4 -4 -4 -4 -4 -4 -4 -4 -3 -3 -3 -3 -3 -3 -3 -3 -3 -3 -3 -3 -3 -3 -3 -3 -3
-0 -0 -1 -1 -1 -1 -1 -1 -2 -2 -2 -2 -2 -2 -2 -2 -3 -3 -3 -3 -4 -4 -4 -4 -4 -4 -4 -4 -5 -5 -5 -5 -5 -5 -5 -5 -5 -5 -5 -5 -4 -4 -4 -5 -5 -4 -4 -4 -4 -4 -4 -4 -4 -3 -3 -3 -3 -3 -3 -2 -2 -2 -3 -3 -3 -3 -3 -3 -3
-1 -1 -1 -1 -1 -1 -2 -2 -2 -2 -2 -2 -2 -2 -3 -3 -3 -3 -3 -4 -4 -4 -4 -4 -4 -5 -5 -5 -5 -6 -6 -6 -6 -6 -6 -6 -5 -5 -5 -5 -5 -5 -5 -5 -5 -5 -5 -4 -4 -4 -4 -4 -4 -4 -3 -3 -3 -3 -3 -2 -2 -2 -3 -3 -3 -3 -3 -3 -3
-1 -1 -1 -1 -1 -2 -2 -2 -2 -2 -2 -3 -3 -3 -3 -3 -3 -3 -3 -4 -4 -4 -4 -5 -5 -5 -5 -5 -6 -6 -6 -6 -6 -6 -6 -6 -6 -5 -5 -5 -5 -5 -5 -5 -5 -5 -5 -5 -4 -4 -4 -4 -4 -4 -4 -3 -3 -3 -3 -3 -3 -3 -3 -3 -3 -3 -3 -3 -3
-1 -1 -1 -2 -2 -2 -2 -2 -3 -3 -3 -3 -3 -3 -3 -3 -3 -4 -4 -4 -4 -4 -5 -5 -5 -5 -6 -6 -6 -6 -6 -6 -6 -6 -6 -6 -6 -6 -6 -5 -5 -5 -5 -5 -5 -5 -5 -5 -5 -4 -4 -4 -4 -4 -4 -4 -3 -3 -3 -3 -3 -3 -3 -3 -3 -3 -3 -3 -3
-1 -1 -2 -2 -2 -2 -3 -3 -3 -3 -3 -3 -3 -3 -3 -3 -4 -4 -4 -4 -4 -5 -5 -5 -6 -6 -6 -6 -6 -6 -6 -6 -6 -6 -6 -6 -6 -6 -6 -6 -6 -6 -6 -6 -6 -5 -5 -5 -5 -5 -5 -5 -4 -4 -4 -4 -4 -3 -3 -3 -3 -3 -3 -3 -3 -3 -3 -3 -3
-1 -2 -2 -2 -2 -3 -3 -3 -3 -3 -3 -3 -3 -3 -4 -4 -4 -4 -4 -4 -5 -5 -5 -5 -6 -6 -6 -6 -6 -6 -6 -6 -6 -6 -6 -6 -6 -6 -6 -6 -6 -6 -6 -6 -6 -5 -5 -5 -5 -5 -5 -5 -4 -4 -4 -4 -4 -4 -3 -3 -3 -3 -3 -3 -3 -3 -3 -3 -3
-2 -2 -2 -2 -3 -3 -3 -3 -3 -3 -3 -3 -4 -4 -4 -4 -4 -4 -5 -5 -5 -5 -5 -6 -6 -6 -6 -6 -7 -7 -7 -7 -7 -7 -7 -7 -7 -7 -7 -7 -7 -7 -6 -6 -6 -6 -6 -5 -5 -5 -5 -5 -4 -4 -4 -4 -4 -4 -4 -3 -3 -3 -3 -3 -3 -3 -3 -3 -3
-2 -2 -2 -3 -3 -3 -3 -3 -3 -3 -4 -4 -4 -4 -4 -4 -5 -5 -5 -5 -5 -5 -6 -6 -6 -6 -6 -7 -7 -7 -7 -7 -7 -7 -7 -7 -7 -7 -7 -7 -7 -7 -7 -7 -6 -6 -6 -5 -5 -5 -5 -4 -4 -4 -4 -4 -4 -4 -4 -3 -3 -3 -3 -3 -3 -3 -3 -3 -3
-2 -3 -3 -3 -3 -3 -3 -4 -4 -4 -4 -4 -4 -4 -5 -5 -5 -5 -5 -5 -5 -6 -6 -6 -6 -6 -7 -7 -7 -7 -7 -7 -7 -7 -7 -7 -7 -7 -7 -8 -7 -7 -7 -7 -7 -6 -6 -5 -5 -5 -4 -4 -4 -4 -4 -4 -4 -4 -4 -3 -3 -3 -3 -3 -3 -3 -3 -3 -3
-3 -3 -3 -3 -3 -4 -4 -4 -4 -4 -4 -4 -5 -5 -5 -5 -5 -5 -6 -6 -6 -6 -6 -6 -6 -7 -7 -7 -7 -7 -7 -7 -8 -8 -8 -8 -8 -8 -8 -8 -8 -8 -7 -7 -7 -6 -6 -5 -5 -5 -4 -4 -4 -4 -4 -4 -3 -3 -3 -3 -3 -3 -3 -3 -3 -3 -3 -3 -3
-3 -3 -3 -4 -4 -4 -4 -4 -4 -4 -5 -5 -5 -5 -5 -5 -5 -6 -6 -6 -6 -6 -6 -7 -7 -7 -7 -7 -7 -7 -8 -8 -8 -8 -8 -8 -8 -8 -8 -8 -8 -8 -8 -7 -7 -6 -6 -5 -5 -5 -5 -4 -4 -4 -4 -4 -4 -3 -3 -3 -3 -3 -3 -3 -3 -3 -3 -3 -3
-3 -4 -4 -4 -4 -4 -4 -4 -5 -5 -5 -5 -5 -5 -5 -6 -6 -6 -6 -6 -6 -6 -7 -7 -7 -7 -7 -7 -7 -8 -8 -8 -8 -8 -8 -8 -8 -8 -8 -8 -8 -8 -8 -8 -7 -7 -6 -6 -5 -5 -5 -4 -4 -4 -4 -4 -4 -4 -4 -4 -4 -4 -3 -3 -3 -3 -3 -3 -2
-4 -4 -4 -4 -5 -5 -5 -5 -5 -5 -5 -5 -6 -6 -6 -6 -6 -6 -6 -6 -7 -7 -7 -7 -7 -7 -7 -7 -8 -8 -8 -8 -8 -8 -8 -8 -8 -9 -9 -8 -8 -8 -8 -8 -7 -7 -6 -6 -6 -5 -5 -5 -4 -4 -4 -4 -4 -4 -4 -4 -4 -3 -3 -3 -3 -3 -3 -2 -2
-4 -4 -5 -5 -5 -5 -5 -5 -5 -6 -6 -6 -6 -6 -6 -6 -6 -6 -6 -7 -7 -7 -7 -7 -7 -7 -7 -8 -8 -8 -8 -8 -8 -8 -8 -8 -9 -9 -9 -9 -9 -9 -8 -8 -8 -7 -7 -6 -6 -6 -5 -5 -4 -4 -4 -4 -4 -4 -4 -4 -4 -3 -3 -3 -3 -3 -3 -2 -2
-5 -5 -5 -5 -5 -6 -6 -6 -6 -6 -6 -6 -6 -6 -6 -6 -6 -7 -7 -7 -7 -7 -7 -8 -8 -8 -8 -8 -8 -8 -8 -8 -8 -8 -8 -8 -9 -9 -9 -9 -9 -9 -8 -8 -8 -8 -7 -7 -6 -6 -5 -5 -4 -4 -4 -4 -4 -4 -4 -4 -4 -3 -3 -3 -3 -3 -3 -3 -2
-5 -5 -6 -6 -6 -6 -6 -6 -6 -6 -6 -6 -6 -6 -6 -7 -7 -7 -7 -7 -7 -7 -8 -8 -8 -8 -8 -8 -8 -8 -8 -8 -8 -8 -8 -9 -9 -9 -9 -9 -9 -9 -8 -8 -8 -8 -7 -7 -6 -6 -5 -5 -5 -4 -4 -4 -4 -4 -4 -4 -4 -4 -4 -4 -4 -3 -3 -3 -3
-5 -6 -6 -6 -6 -6 -6 -6 -6 -6 -6 -7 -7 -7 -7 -7 -7 -7 -7 -7 -8 -8 -8 -8 -8 -8 -8 -8 -8 -8 -8 -8 -8 -8 -8 -9 -9 -9 -9 -9 -9 -9 -8 -8 -8 -8 -7 -7 -6 -6 -5 -5 -5 -5 -5 -4 -4 -4 -4 -4 -4 -4 -4 -4 -4 -3 -3 -3 -2
-6 -6 -6 -6 -6 -6 -7 -7 -7 -7 -7 -7 -7 -7 -7 -7 -7 -7 -8 -8 -8 -8 -8 -8 -8 -8 -8 -8 -8 -8 -8 -8 -8 -8 -8 -9 -9 -9 -9 -9 -9 -8 -8 -8 -8 -8 -7 -7 -6 -6 -5 -5 -5 -5 -5 -5 -4 -4 -4 -4 -4 -4 -4 -4 -3 -3 -3 -2 -2
-6 -6 -7 -7 -7 -7 -7 -7 -7 -7 -7 -7 -7 -7 -7 -7 -8 -8 -8 -8 -8 -8 -8 -8 -8 -8 -8 -8 -8 -8 -8 -8 -8 -8 -9 -9 -8 -8 -8 -8 -8 -8 -8 -8 -8 -7 -7 -7 -6 -6 -5 -5 -5 -5 -5 -5 -4 -4 -4 -4 -4 -4 -4 -3 -3 -3 -3 -2 -2
-7 -7 -7 -7 -7 -7 -7 -7 -7 -7 -7 -7 -7 -7 -7 -8 -8 -8 -8 -8 -8 -8 -8 -8 -8 -8 -8 -8 -8 -8 -8 -8 -8 -8 -8 -8 -8 -8 -8 -8 -8 -8 -8 -7 -7 -7 -6 -6 -6 -5 -5 -5 -5 -5 -5 -5 -4 -4 -4 -4 -4 -4 -3 -3 -3 -3 -2 -2 -2
-7 -7 -7 -7 -7 -7 -7 -7 -7 -7 -7 -7 -7 -8 -8 -8 -8 -8 -8 -8 -8 -8 -8 -8 -8 -8 -8 -8 -9 -9 -9 -9 -8 -8 -8 -8 -8 -8 -8 -8 -8 -7 -7 -7 -6 -6 -6 -5 -5 -5 -5 -5 -5 -5 -5 -5 -5 -4 -4 -4 -4 -4 -3 -3 -3 -3 -2 -2 -2
-7 -7 -7 -7 -7 -7 -7 -7 -7 -7 -8 -8 -8 -8 -8 -8 -8 -8 -8 -8 -8 -8 -8 -8 -8 -9 -9 -9 -9 -9 -9 -8 -8 -8 -8 -8 -8 -9 -8 -8 -8 -7 -6 -6 -6 -6 -5 -5 -5 -5 -5 -5 -5 -5 -5 -5 -5 -5 -4 -4 -4 -4 -3 -3 -3 -3 -2 -2 -2
-7 -7 -8 -8 -7 -7 -7 -7 -8 -8 -8 -8 -8 -8 -8 -8 -8 -8 -8 -8 -8 -8 -9 -9 -9 -9 -9 -9 -9 -9 -8 -8 -8 -8 -8 -8 -8 -8 -8 -8 -7 -7 -6 -6 -6 -6 -5 -5 -5 -5 -5 -5 -5 -5 -5 -5 -5 -4 -4 -4 -4 -3 -3 -3 -3 -3 -2 -2 -2
-7 -7 -8 -8 -8 -8 -8 -8 -8 -8 -8 -9 -9 -9 -9 -9 -9 -9 -9 -9 -9 -9 -9 -9 -9 -9 -9 -9 -9 -9 -8 -8 -8 -8 -9 -9 -8 -8 -8 -7 -7 -6 -6 -6 -5 -5 -5 -5 -5 -5 -5 -5 -5 -5 -5 -5 -5 -4 -4 -4 -4 -3 -3 -3 -3 -3 -2 -2 -2
-7 -7 -8 -8 -8 -8 -8 -8 -8 -8 -9 -9 -9 -9 -9 -9 -9 -9 -9 -9 -9 -9 -9 -9 -9 -9 -9 -9 -9 -9 -9 -8 -9 -9 -9 -8 -8 -8 -7 -7 -7 -6 -6 -5 -5 -5 -5 -5 -5 -5 -5 -5 -5 -5 -5 -4 -4 -4 -4 -4 -4 -3 -3 -3 -3 -3 -2 -2 -2
Height
1496 1495 1493 1491 1489 1488 1486 1484 1483 1481 1480 1478 1476 1475 1473 1472 1470 1468 1467 1466 1464 1462 1461 1459 1458 1457 1455 1454 1453 1452 1450 1449 1448 1447 1446 1444 1443 1442 1441 1440 1439 1438 1437 1436 1435 1434 1433 1432 1431 1429 1428 1426 1425 1424 1423 1423 1422 1421 1420 1419 1418 1417 1416 1415 1414 1414 1414 1413 1413
1494 1493 1491 1489 1488 1486 1484 1482 1481 1479 1478 1476 1475 1473 1471 1470 1468 1466 1465 1463 1462 1461 1459 1457 1456 1455 1453 1452 1451 1450 1448 1447 1445 1444 1443 1442 1441 1439 1438 1438 1436 1435 1434 1433 1433 1432 1430 1429 1428 1427 1425 1424 1423 1421 1420 1420 1419 1418 1417 1416 1415 1414 1413 1412 1411 1411 1411 1410 1410
1492 1490 1489 1487 1486 1484 1482 1480 1479 1478 1476 1474 1473 1472 1470 1468 1467 1465 1463 1462 1460 1459 1457 1455 1454 1453 1451 1450 1448 1448 1446 1444 1443 1441 1440 1439 1438 1437 1436 1435 1433 1433 1432 1431 1430 1429 1428 1427 1426 1424 1423 1421 1420 1419 1418 1417 1417 1416 1414 1413 1413 1412 1411 1410 1409 1408 1408 1408 1407
1489 1488 1486 1485 1483 1482 1480 1479 1477 1475 1474 1473 1471 1469 1468 1467 1465 1463 1461 1460 1458 1457 1455 1454 1452 1450 1449 1448 1446 1445 1444 1442 1441 1439 1437 1436 1435 1434 1433 1432 1431 1430 1429 1428 1427 1426 1425 1424 1423 1421 1420 1418 1417 1416 1415 1415 1414 1413 1412 1411 1410 1409 1408 1407 1406 1406 1405 1405 1404
1487 1486 1484 1483 1482 1480 1478 1477 1475 1473 1472 1470 1469 1468 1466 1465 1463 1461 1459 1458 1456 1454 1453 1452 1450 1448 1447 1445 1444 1442 1441 1440 1438 1437 1435 1433 1432 1431 1430 1429 1428 1427 1426 1425 1424 1423 1422 1421 1420 1418 1417 1416 1414 1413 1413 1412 1412 1410 1409 1408 1407 1407 1405 1404 1404 1403 1403 1402 1402
1484 1483 1482 1481 1479 1478 1477 1475 1473 1472 1470 1468 1467 1465 1464 1463 1461 1459 1457 1455 1453 1452 1451 1449 1448 1446 1444 1443 1441 1440 1438 1437 1436 1434 1433 1431 1429 1428 1427 1426 1425 1423 1423 1422 1421 1420 1419 1418 1417 1415 1414 1413 1412 1410 1410 1410 1409 1408 1406 1405 1404 1404 1403 1402 1401 1401 1400 1399 1399
1482 1481 1480 1478 1477 1476 1474 1473 1471 1470 1468 1467 1465 1463 1462 1460 1458 1457 1455 1453 1451 1449 1448 1447 1445 1443 1442 1440 1438 1437 1436 1434 1433 1431 1430 1428 1427 1425 1424 1423 1422 1420 1419 1418 1418 1417 1416 1415 1414 1412 1411 1410 1408 1408 1407 1407 1406 1405 1403 1402 1402 1401 1400 1399 1399 1398 1398 1397 1397
1480 1479 1478 1477 1475 1474 1472 1471 1469 1468 1466 1464 1463 1461 1459 1458 1456 1454 1452 1450 1449 1447 1445 1444 1442 1441 1439 1438 1436 1434 1433 1431 1430 1428 1427 1426 1424 1422 1421 1420 1419 1417 1416 1415 1414 1413 1412 1412 1411 1409 1408 1407 1406 1404 1404 1404 1403 1402 1400 1399 1398 1398 1398 1397 1396 1396 1395 1394 1394
1478 1477 1476 1474 1473 1472 1470 1468 1467 1465 1463 1462 1460 1459 1457 1455 1453 1452 1450 1448 1446 1444 1443 1441 1439 1438 1437 1435 1433 1432 1430 1428 1427 1425 1424 1423 1421 1419 1418 1417 1416 1414 1413 1412 1411 1410 1409 1408 1407 1406 1405 1404 1403 1402 1401 1401 1400 1398 1397 1397 1396 1395 1394 1394 1393 1393 1392 1391 1391
1476 1475 1473 1472 1471 1469 1468 1466 1464 1463 1461 1459 1458 1456 1454 1453 1451 1449 1447 1445 1443 1442 1440 1439 1437 1435 1434 1432 1431 1429 1428 1426 1424 1423 1421 1419 1418 1417 1415 1414 1413 1411 1410 1409 1408 1407 1406 1405 1404 1402 1401 1401 1400 1398 1398 1398 1397 1395 1394 1393 1393 1392 1391 1391 1391 1390 1389 1388 1388
1474 1473 1471 1470 1468 1467 1465 1463 1461 1460 1458 1457 1455 1453 1452 1450 1448 1446 1444 1443 1441 1439 1438 1436 1435 1433 1431 1429 1428 1426 1425 1423 1421 1420 1418 1417 1415 1414 1413 1411 1410 1408 1407 1406 1405 1404 1403 1402 1400 1399 1398 1397 1397 1396 1395 1394 1393 1392 1391 1390 1390 1389 1388 1387 1387 1387 1386 1386 1385
1472 1470 1469 1467 1466 1464 1462 1460 1458 1457 1455 1453 1452 1450 1448 1447 1445 1443 1442 1440 1438 1437 1435 1433 1432 1430 1428 1427 1425 1424 1422 1420 1419 1417 1415 1413 1412 1411 1410 1408 1407 1406 1404 1403 1402 1401 1400 1399 1397 1396 1395 1394 1394 1393 1392 1391 1390 1389 1388 1387 1386 1386 1385 1384 1384 1384 1383 1383 1382
1469 1468 1466 1464 1463 1461 1459 1458 1456 1454 1452 1450 1449 1447 1446 1444 1442 1441 1439 1437 1435 1434 1432 1431 1429 1428 1426 1424 1423 1421 1419 1418 1416 1414 1413 1411 1409 1408 1407 1405 1404 1403 1401 1400 1399 1398 1397 1396 1394 1393 1392 1391 1390 1390 1389 1388 1387 1386 1385 1384 1383 1382 1382 1381 1381 1380 1380 1380 1379
1467 1465 1463 1462 1460 1458 1457 1455 1453 1451 1449 1448 1446 1444 1443 1441 1439 1438 1437 1435 1433 1431 1430 1428 1427 1425 1424 1422 1420 1418 1417 1415 1413 1412 1410 1408 1407 1405 1404 1402 1401 1400 1398 1397 1396 1395 1394 1393 1391 1390 1389 1388 1387 1386 1386 1385 1384 1383 1382 1381 1380 1379 1378 1378 1377 1377 1377 1376 1375
1464 1463 1461 1459 1458 1456 1454 1452 1450 1448 1447 1445 1443 1442 1440 1438 1437 1436 1434 1432 1430 1429 1427 1426 1424 1423 1421 1420 1418 1416 1414 1413 1411 1409 1407 1405 1404 1403 1401 1400 1398 1397 1396 1394 1393 1392 1391 1390 1389 1388 1386 1385 1384 1383 1382 1382 1381 1380 1379 1378 1377 1376 1375 1375 1374 1374 1373 1373 1372
1461 1460 1458 1457 1455 1453 1451 1450 1448 1446 1444 1443 1441 1439 1438 1436 1434 1433 1432 1430 1428 1426 1425 1423 1422 1420 1418 1417 1415 1413 1412 1410 1408 1407 1405 1403 1401 1400 1398 1397 1396 1394 1393 1392 1390 1389 1388 1387 1386 1385 1384 1382 1381 1380 1379 1378 1377 1376 1376 1375 1374 1373 1372 1372 1371 1371 1370 1370 1369
1459 1457 1456 1454 1452 1451 1449 1447 1446 1444 1442 1440 1439 1437 1436 1434 1432 1431 1429 1428 1426 1424 1422 1420 1419 1418 1415 1413 1412 1411 1409 1407 1406 1404 1403 1401 1399 1397 1396 1394 1393 1391 1390 1389 1388 1386 1385 1384 1383 1382 1381 1379 1378 1377 1376 1375 1374 1373 1372 1371 1370 1369 1369 1368 1368 1368 1367 1367 1366
1456 1455 1453 1452 1450 1448 1447 1445 1443 1442 1440 1438 1436 1435 1433 1432 1430 1428 1427 1425 1423 1422 1419 1418 1416 1415 1413 1411 1409 1408 1407 1405 1403 1402 1400 1398 1396 1395 1393 1391 1390 1388 1387 1386 1384 1383 1382 1381 1380 1379 1378 1376 1375 1373 1372 1371 1370 1369 1368 1368 1367 1366 1365 1365 1364 1364 1363 1363 1363
1454 1453 1451 1449 1448 1446 1444 1443 1441 1439 1438 1436 1434 1433 1431 1429 1428 1426 1424 1422 1421 1419 1417 1415 1413 1412 1410 1409 1407 1406 1404 1403 1401 1399 1397 1395 1393 1392 1390 1388 1387 1385 1384 1383 1382 1380 1379 1378 1376 1375 1374 1373 1372 1370 1369 1368 1367 1366 1365 1364 1363 1363 1362 1361 1361 1361 1360 1360 1359
1452 1450 1448 1447 1445 1444 1442 1440 1439 1437 1435 1433 1432 1430 1428 1427 1425 1423 1422 1419 1418 1417 1415 1413 1411 1409 1408 1406 1404 1403 1401 1400 1398 1396 1393 1392 1390 1388 1387 1385 1384 1382 1381 1380 1378 1377 1376 1374 1373 1372 1371 1370 1368 1367 1366 1364 1363 1363 1362 1361 1360 1359 1359 1358 1358 1357 1357 1357 1357
1450 1448 1447 1445 1443 1441 1440 1438 1436 1435 1433 1431 1429 1428 1426 1424 1423 1421 1419 1417 1415 1413 1412 1410 1408 1407 1405 1403 1402 1400 1398 1396 1395 1393 1391 1389 1387 1385 1384 1382 1381 1379 1378 1376 1375 1374 1373 1372 1370 1369 1368 1367 1365 1364 1363 1361 1360 1359 1358 1358 1357 1356 1356 1355 1355 1354 1354 1353 1353
1448 1446 1444 1443 1441 1439 1437 1436 1434 1432 1430 1429 1427 1425 1423 1422 1420 1418 1416 1414 1413 1411 1409 1407 1406 1404 1402 1400 1399 1397 1395 1393 1391 1389 1388 1386 1384 1382 1381 1379 1378 1376 1374 1373 1372 1371 1369 1368 1367 1366 1365 1363 1362 1361 1360 1358 1357 1356 1355 1354 1353 1353 1352 1352 1351 1351 1350 1350 1350
1445 1444 1442 1440 1438 1437 1435 1433 1432 1430 1428 1426 1424 1422 1421 1418 1417 1415 1413 1411 1410 1408 1406 1404 1403 1401 1399 1398 1396 1394 1392 1389 1388 1386 1384 1383 1381 1379 1378 1376 1375 1373 1371 1370 1368 1367 1366 1365 1364 1363 1362 1361 1359 1358 1357 1355 1354 1353 1352 1351 1350 1349 1349 1348 1348 1348 1347 1347 1346
1443 1441 1440 1438 1436 1434 1433 1431 1429 1427 1425 1423 1422 1419 1418 1416 1414 1412 1410 1408 1407 1405 1403 1402 1400 1398 1397 1395 1393 1391 1389 1387 1385 1383 1381 1379 1378 1376 1374 1373 1371 1370 1368 1367 1365 1364 1364 1363 1362 1361 1359 1358 1357 1355 1354 1353 1351 1350 1349 1348 1347 1346 1345 1344 1344 1344 1344 1343 1343
1441 1439 1437 1436 1434 1432 1430 1428 1426 1424 1423 1421 1419 1417 1415 1413 1411 1409 1407 1405 1403 1402 1400 1398 1397 1395 1393 1392 1389 1388 1386 1384 1382 1380 1378 1376 1374 1373 1371 1369 1368 1366 1364 1363 1362 1362 1361 1361 1360 1359 1357 1356 1355 1353 1352 1350 1349 1348 1347 1345 1344 1343 1342 1342 1341 1341 1340 1340 1340
1438 1437 1435 1433 1431 1429 1428 1426 1424 1422 1420 1418 1416 1414 1412 1410 1408 1406 1404 1403 1401 1399 1398 1396 1394 1392 1390 1388 1387 1384 1383 1381 1379 1378 1375 1373 1371 1369 1368 1366 1364 1363 1361 1360 1359 1358 1358 1358 1357 1356 1355 1354 1353 1351 1349 1348 1347 1346 1345 1344 1343 1342 1341 1339 1338 1338 1338 1338 1337
1436 1434 1432 1430 1429 1427 1425 1423 1421 1419 1417 1415 1413 1411 1409 1407 1405 1403 1402 1400 1398 1396 1395 1393 1391 1389 1388 1386 1383 1382 1380 1378 1376 1375 1373 1371 1368 1366 1364 1363 1361 1359 1358 1357 1356 1355 1355 1354 1354 1353 1352 1351 1350 1348 1347 1345 1344 1343 1342 1341 1340 1339 1338 1337 1336 1335 1335 1334 1334
1433 1432 1430 1428 1426 1424 1422 1420 1418 1416 1414 1413 1410 1408 1406 1404 1403 1401 1399 1397 1395 1393 1392 1390 1388 1387 1385 1383 1380 1378 1377 1375 1373 1372 1370 1368 1366 1363 1362 1359 1358 1356 1354 1353 1353 1352 1352 1351 1350 1349 1349 1348 1347 1345 1344 1342 1340 1339 1338 1337 1336 1335 1334 1333 1332 1332 1331 1331 1330
1431 1429 1427 1425 1423 1421 1419 1418 1416 1413 1412 1410 1408 1406 1404 1402 1400 1398 1396 1394 1393 1391 1389 1387 1385 1384 1382 1380 1378 1376 1374 1372 1370 1368 1367 1364 1362 1360 1358 1356 1354 1352 1351 1350 1349 1348 1348 1347 1347 1346 1345 1345 1344 1342 1341 1339 1337 1336 1334 1333 1332 1331 1331 1330 1329 1328 1328 1327 1327
1428 1427 1425 1423 1421 1419 1417 1415 1413 1411 1409 1407 1405 1403 1401 1399 1397 1395 1393 1392 1390 1388 1386 1385 1383 1381 1379 1377 1375 1373 1371 1369 1367 1365 1363 1361 1359 1357 1355 1353 1351 1349 1347 1346 1345 1345 1344 1343 1343 1343 1342 1342 1341 1339 1338 1336 1334 1333 1331 1330 1329 1328 1328 1327 1326 1325 1325 1325 1324
1426 1424 1422 1420 1418 1416 1414 1412 1410 1408 1407 1405 1403 1401 1398 1396 1394 1392 1390 1389 1387 1385 1383 1382 1380 1378 1376 1374 1372 1370 1368 1366 1364 1362 1361 1358 1356 1354 1351 1349 1348 1345 1344 1343 1342 1341 1340 1340 1339 1339 1339 1338 1337 1336 1334 1333 1331 1330 1328 1327 1326 1325 1325 1324 1323 1323 1323 1323 1322
1423 1422 1420 1418 1416 1413 1412 1410 1408 1406 1404 1402 1400 1398 1396 1393 1391 1389 1388 1386 1384 1382 1380 1378 1376 1374 1372 1370 1368 1367 1365 1363 1361 1359 1357 1355 1353 1351 1348 1346 1344 1342 1341 1340 1339 1338 1337 1337 1336 1336 1335 1335 1334 1333 1331 1329 1328 1326 1325 1324 1323 1322 1321 1320 1320 1319 1318 1318 1318
1421 1419 1418 1416 1413 1411 1409 1407 1405 1403 1401 1399 1397 1395 1393 1390 1388 1386 1385 1383 1381 1379 1378 1375 1373 1371 1369 1367 1365 1363 1362 1360 1358 1356 1354 1352 1350 1348 1345 1343 1340 1338 1338 1337 1336 1335 1334 1333 1333 1333 1332 1331 1330 1329 1328 1326 1324 1323 1322 1320 1319 1318 1317 1317 1316 1316 1315 1315 1315
1419 1417 1415 1413 1411 1409 1407 1404 1403 1401 1398 1396 1394 1392 1390 1388 1385 1383 1382 1380 1378 1377 1374 1373 1371 1368 1367 1365 1363 1361 1358 1357 1355 1353 1351 1349 1347 1345 1342 1339 1337 1335 1334 1333 1333 1332 1331 1330 1330 1329 1328 1328 1327 1325 1324 1322 1321 1319 1318 1316 1315 1314 1313 1313 1313 1312 1312 1312 1312
1417 1414 1413 1410 1408 1406 1404 1402 1400 1398 1396 1393 1391 1388 1387 1385 1383 1381 1379 1377 1375 1373 1371 1369 1367 1366 1364 1362 1360 1358 1356 1354 1352 1350 1348 1346 1344 1341 1339 1336 1334 1332 1331 1331 1329 1328 1328 1327 1326 1326 1325 1324 1323 1322 1320 1319 1317 1316 1314 1313 1312 1311 1310 1310 1309 1309 1309 1309 1308
1414 1412 1410 1408 1406 1403 1401 1399 1397 1395 1393 1390 1388 1386 1383 1382 1380 1378 1376 1374 1373 1370 1368 1366 1364 1362 1360 1358 1357 1355 1353 1351 1348 1346 1344 1343 1341 1338 1336 1333 1330 1329 1328 1327 1326 1325 1324 1324 1323 1323 1322 1321 1320 1319 1317 1316 1314 1312 1310 1309 1308 1307 1307 1306 1306 1306 1306 1305 1305
1412 1410 1408 1405 1403 1401 1398 1397 1394 1392 1390 1388 1385 1383 1381 1379 1377 1375 1373 1372 1370 1367 1365 1363 1361 1359 1357 1355 1353 1351 1349 1348 1346 1343 1341 1339 1338 1336 1333 1330 1327 1325 1324 1324 1323 1322 1321 1321 1320 1320 1319 1318 1317 1315 1314 1313 1311 1309 1307 1306 1305 1304 1303 1303 1303 1303 1302 1302 1302
1409 1408 1405 1403 1400 1398 1396 1394 1392 1389 1387 1385 1383 1381 1378 1377 1374 1373 1371 1369 1367 1364 1362 1360 1358 1356 1354 1352 1350 1348 1346 1344 1343 1341 1339 1337 1335 1333 1330 1327 1324 1322 1322 1321 1320 1319 1319 1318 1317 1317 1316 1315 1314 1313 1311 1309 1308 1306 1304 1303 1302 1301 1301 1300 1300 1300 1299 1299 1298
1407 1405 1403 1400 1398 1396 1393 1391 1389 1387 1384 1382 1380 1378 1376 1374 1372 1370 1368 1367 1365 1363 1360 1357 1355 1353 1351 1349 1347 1345 1343 1341 1340 1339 1337 1334 1332 1330 1328 1325 1322 1320 1319 1318 1318 1317 1316 1315 1314 1313 1313 1312 1311 1309 1308 1306 1305 1303 1302 1300 1299 1298 1298 1298 1297 1297 1296 1296 1295
1404 1402 1400 1398 1396 1393 1391 1388 1386 1384 1382 1380 1378 1375 1373 1372 1370 1368 1366 1364 1362 1360 1358 1355 1352 1350 1348 1347 1345 1342 1340 1338 1337 1335 1334 1332 1329 1327 1325 1323 1320 1318 1317 1316 1315 1314 1313 1312 1311 1310 1310 1309 1308 1307 1305 1303 1302 1300 1299 1298 1297 1296 1295 1295 1294 1294 1293 1292 1292
1401 1399 1397 1395 1393 1391 1388 1386 1383 1381 1379 1378 1376 1373 1371 1369 1367 1365 1363 1361 1359 1357 1355 1352 1350 1348 1346 1344 1342 1340 1337 1335 1333 1332 1330 1328 1326 1324 1322 1320 1318 1316 1314 1313 1313 1312 1310 1309 1308 1307 1307 1306 1305 1304 1303 1301 1299 1298 1297 1295 1295 1294 1293 1292 1292 1291 1290 1289 1289
Wind_Speed
34 35 37 38 39 39 40 40 40 39 38 38 37 37 37 37 38 38 38 38 37 38 38 38 38 38 38 38 37 37 36 36 35 34 33 33 33 32 32 32 32 31 31 32 32 32 32 32 32 32 32 33 33 33 33 32 32 32 32 32 32 32 32 31 31 31 30 29 29
36 37 37 38 39 39 39 39 38 38 37 36 36 36 36 36 36 36 36 36 36 36 37 37 37 37 38 37 37 37 36 36 35 35 34 34 33 33 32 32 32 32 32 32 32 32 32 32 32 32 32 33 34 34 33 33 32 32 32 32 32 32 32 32 31 31 30 30 29
37 38 38 38 38 38 37 37 37 36 35 34 34 34 34 34 34 35 35 35 35 35 36 36 37 37 37 37 37 36 36 36 36 36 35 35 34 34 33 33 32 32 32 32 32 32 32 32 32 32 33 33 34 34 34 33 32 32 33 33 32 32 32 32 31 31 30 30 29
38 38 38 38 37 36 35 35 34 34 33 33 33 33 33 33 33 34 34 34 35 35 35 35 36 36 36 37 37 36 36 36 36 36 36 36 35 35 34 34 33 33 32 32 32 32 32 32 32 32 33 33 34 34 34 33 33 33 33 33 32 32 32 31 31 30 30 30 30
38 37 37 36 35 34 33 32 32 32 32 32 32 33 33 33 33 33 34 34 34 35 35 35 35 36 36 36 36 36 36 36 36 36 36 36 36 35 35 34 34 33 33 32 32 32 32 32 32 32 33 34 34 35 34 34 33 33 33 33 33 32 32 32 31 30 30 30 30
37 36 35 34 33 32 31 31 31 31 32 32 32 33 33 33 33 34 34 34 35 35 35 35 35 36 36 36 36 36 36 36 36 36 36 36 36 36 36 35 35 34 34 33 33 32 32 32 32 32 33 34 35 35 35 34 33 33 34 34 33 33 33 32 31 31 30 30 30
35 34 33 32 31 31 31 31 31 31 32 32 33 33 33 34 34 34 34 34 35 35 35 35 35 35 35 36 36 36 36 36 36 36 36 37 37 37 36 36 35 35 35 34 34 33 33 32 32 33 33 34 34 35 35 34 34 34 35 35 34 34 33 33 32 32 31 31 31
33 32 31 31 31 31 31 31 32 32 33 33 33 34 34 34 34 34 34 35 35 35 35 35 35 35 35 35 35 36 36 36 36 37 37 37 37 37 37 36 36 36 35 35 34 34 34 33 33 33 34 34 35 35 35 34 34 35 36 36 35 35 35 34 33 33 32 32 31
32 31 31 31 31 31 32 32 33 33 33 34 34 34 34 34 34 34 35 35 35 35 35 35 35 35 35 35 35 35 36 36 36 37 37 37 37 37 37 37 36 36 36 35 35 35 34 34 34 34 34 34 35 35 35 34 35 36 36 37 36 36 35 35 34 34 33 32 32
32 32 32 32 32 32 33 33 33 33 33 34 34 34 34 34 34 34 34 35 35 35 35 34 34 34 34 35 35 35 36 36 37 37 38 38 37 37 37 37 36 36 36 36 35 35 35 35 35 35 35 35 35 35 35 35 35 37 37 37 37 37 37 36 35 34 34 33 32
33 33 33 33 33 33 33 33 33 33 33 34 34 34 34 34 34 34 34 35 35 35 34 34 34 34 34 34 35 35 36 36 37 38 38 38 38 37 37 37 36 36 36 36 35 34 34 35 35 36 36 35 35 35 35 36 36 37 38 38 38 38 38 37 36 35 34 34 33
34 34 34 33 33 33 33 33 33 33 33 34 34 34 34 34 34 34 34 35 34 34 34 34 34 34 34 34 35 35 36 37 37 38 38 38 38 38 37 37 36 36 36 35 35 34 34 34 35 36 36 36 35 35 36 36 37 38 39 39 39 39 39 38 37 36 35 34 34
34 34 34 33 33 33 33 33 33 33 34 34 34 34 35 35 35 35 34 35 34 34 35 35 34 34 34 35 35 36 36 37 38 38 38 38 38 38 38 37 37 36 36 35 34 33 33 34 34 35 35 36 36 36 36 36 37 38 39 39 39 40 40 39 38 37 36 36 36
34 34 33 33 33 32 32 33 33 34 34 35 35 35 35 35 35 35 35 35 35 35 35 35 35 35 35 35 36 37 37 37 37 38 38 39 39 39 39 38 38 37 36 35 34 33 32 33 33 34 35 35 36 36 36 36 37 38 39 39 40 40 40 39 39 38 37 37 37
34 33 33 32 32 32 32 33 34 34 35 35 35 35 35 36 35 35 35 35 35 35 35 35 36 36 36 36 37 37 37 37 37 37 38 39 39 40 40 40 39 38 37 35 34 32 32 32 33 33 34 35 36 36 37 37 38 38 39 39 40 40 40 39 38 38 37 37 37
34 33 32 32 32 32 33 33 34 34 35 35 35 35 36 36 36 36 35 35 36 36 36 36 36 37 37 38 37 37 37 37 37 37 38 39 40 41 41 41 40 39 38 36 34 32 32 32 32 33 34 35 36 37 37 38 38 38 39 39 39 39 39 38 38 37 37 36 37
33 33 32 32 32 32 33 33 34 34 34 35 35 35 36 36 36 36 36 36 36 36 37 37 37 38 38 39 38 37 36 36 36 37 37 39 40 41 41 41 41 40 38 36 34 33 33 33 33 33 34 35 35 36 37 37 38 38 38 38 38 38 38 37 37 36 36 36 36
33 33 32 32 32 33 33 33 34 34 34 35 35 35 36 36 36 36 36 36 36 37 37 38 38 38 38 39 38 36 35 35 36 37 38 39 40 41 41 41 41 40 38 36 35 34 34 34 34 34 34 34 35 35 36 37 37 37 37 37 37 37 37 36 36 36 36 35 35
33 33 33 32 33 33 33 33 34 34 34 35 35 36 36 36 36 37 37 37 37 37 38 39 39 39 39 38 37 37 36 36 37 38 39 39 40 40 41 41 40 39 38 37 35 35 34 34 34 34 35 35 35 35 35 36 36 36 36 36 36 36 36 35 35 35 34 34 34
33 33 33 33 33 33 33 34 34 34 35 35 36 36 36 37 37 37 38 38 38 38 39 39 40 40 39 38 38 38 38 38 38 39 39 40 40 40 40 39 39 38 38 37 36 35 35 35 35 35 35 35 35 35 35 35 35 35 35 35 35 35 35 34 34 34 33 33 33
33 33 33 33 33 34 34 34 34 35 35 36 36 37 37 37 38 38 38 39 39 39 40 40 40 40 40 39 39 40 40 40 39 39 39 39 39 39 39 38 38 38 38 37 37 37 36 36 36 36 36 36 36 35 35 35 35 35 35 35 35 35 34 34 34 34 33 33 33
33 33 33 33 34 34 34 34 35 35 36 36 37 37 38 38 39 39 40 40 40 41 41 41 41 41 40 40 41 41 42 41 41 40 40 39 39 39 38 38 38 38 38 38 38 38 37 37 37 37 36 36 36 35 35 36 36 36 36 36 36 35 35 35 35 34 34 34 34
34 34 34 34 34 34 35 35 36 36 37 37 38 38 39 40 40 41 41 41 42 42 42 42 42 41 41 41 42 42 42 41 41 40 40 39 39 39 39 38 38 38 38 38 38 38 38 37 37 37 36 36 36 36 36 36 37 37 38 38 38 37 37 37 36 36 36 36 36
34 34 34 34 35 35 35 36 37 37 38 39 39 40 40 41 42 42 42 43 43 43 43 43 42 42 42 42 42 41 40 40 39 40 40 40 40 40 40 39 39 38 38 38 38 37 37 36 36 36 36 36 36 37 37 38 39 39 40 40 40 40 40 40 39 39 39 39 39
34 34 35 35 35 36 36 37 38 39 39 40 41 41 42 43 43 43 44 44 44 44 44 44 43 43 42 42 41 40 39 38 38 39 40 41 41 41 41 41 40 40 39 38 37 36 35 34 35 35 36 36 37 37 37 38 39 41 41 41 42 42 42 42 42 41 41 40 40
35 35 35 36 36 37 38 38 39 40 41 41 42 43 43 44 44 45 45 45 45 45 45 44 43 43 42 40 40 40 39 39 39 39 39 41 41 42 42 41 41 41 40 38 37 36 35 35 35 35 35 36 37 38 39 40 40 41 41 42 42 42 43 43 42 42 41 40 40
35 35 36 36 37 38 39 39 40 41 42 43 43 44 44 45 45 45 46 46 46 45 45 44 43 42 40 39 39 39 39 40 40 40 40 41 42 42 42 42 42 41 40 38 37 36 35 35 35 35 35 36 37 38 39 40 40 41 41 41 42 42 42 42 42 42 41 40 40
35 36 37 37 38 39 40 41 41 42 43 44 44 45 45 46 46 46 46 46 46 45 44 43 42 40 39 38 39 39 40 40 41 41 41 42 42 42 42 42 42 41 40 38 37 36 36 36 36 35 35 35 36 37 38 39 40 40 40 40 40 40 39 39 39 39 39 38 36
36 37 38 39 39 40 41 42 43 43 44 45 45 45 46 46 47 47 47 46 46 45 43 42 40 39 39 39 40 40 41 42 42 42 42 42 43 43 42 42 42 42 41 39 38 37 36 36 36 35 35 35 36 37 38 38 39 39 39 39 38 38 38 39 39 38 37 35 34
37 38 39 40 41 41 42 43 43 44 45 45 45 46 46 47 47 47 47 46 45 44 42 41 40 40 40 40 41 42 42 43 43 43 43 43 43 43 44 44 44 43 42 40 38 37 36 35 34 34 35 35 35 36 37 38 38 38 38 38 38 39 39 39 39 38 37 35 33
38 38 39 40 41 42 43 44 44 45 45 45 46 46 47 47 47 47 46 45 44 43 42 41 41 41 41 41 41 42 42 43 43 43 42 43 42 43 44 44 44 44 43 41 38 36 35 34 34 34 35 35 36 36 37 38 38 38 38 38 38 39 39 39 39 38 37 36 35
39 39 40 41 42 43 44 44 45 45 46 46 46 47 47 47 46 46 45 44 43 42 42 41 41 42 42 42 42 43 43 43 43 43 43 43 44 44 45 45 45 45 43 41 38 36 35 35 35 35 35 35 36 36 37 37 38 37 37 38 38 39 39 39 39 38 37 36 36
39 40 41 41 42 43 44 45 45 45 46 46 46 46 46 46 46 45 44 43 42 41 41 41 41 41 42 42 43 43 43 43 43 43 43 43 44 45 46 46 46 45 43 41 39 36 35 35 35 35 35 35 35 36 37 37 37 37 37 38 38 38 38 38 37 36 35 34 33
40 41 41 42 43 44 45 45 45 46 46 46 46 46 45 45 45 44 43 42 42 41 41 41 41 41 41 42 43 43 42 40 41 42 43 44 45 46 47 47 47 45 43 41 39 37 35 35 35 34 34 34 34 35 36 37 37 37 37 37 37 37 36 35 34 34 33 33 33
40 41 42 43 43 44 45 46 46 46 46 45 45 45 44 44 43 43 43 42 41 41 41 41 41 41 42 42 42 41 40 40 42 43 44 45 46 46 47 47 46 45 42 40 37 35 34 33 32 32 32 32 34 35 36 36 37 37 36 36 35 34 33 32 32 31 31 31 32
41 41 42 43 44 45 45 45 45 45 45 44 44 44 43 43 43 42 42 41 41 41 42 42 42 42 42 42 41 40 41 42 43 44 45 46 46 46 47 47 45 43 40 37 35 33 32 31 31 31 31 32 34 35 36 36 36 36 36 35 34 33 31 30 30 30 30 30 31
42 42 43 44 45 45 45 45 45 44 44 43 42 42 42 43 43 42 41 40 41 41 42 42 43 43 43 42 42 43 43 43 44 45 46 46 47 47 47 46 43 40 37 34 32 31 30 30 30 30 31 32 34 35 35 35 36 36 36 35 34 32 30 29 29 29 29 30 31
42 43 43 43 44 44 44 44 44 43 43 42 42 42 42 42 42 41 40 40 40 41 42 42 43 43 43 44 44 44 44 44 44 45 46 47 47 46 45 43 41 37 34 32 30 29 29 29 29 30 30 32 34 35 35 35 35 35 35 34 32 31 29 28 28 28 29 30 31
43 43 43 43 43 43 43 43 43 42 41 41 41 41 41 41 41 40 40 40 40 41 42 43 43 43 43 43 44 45 45 45 45 46 47 47 46 44 42 40 38 35 32 30 29 29 29 29 29 29 30 31 32 33 33 33 33 33 32 31 30 29 28 27 28 29 30 31 32
43 43 42 42 42 42 42 42 41 41 40 40 40 40 41 40 40 40 40 40 40 41 42 43 43 43 42 42 43 44 46 46 47 47 47 46 44 41 38 36 35 33 31 29 29 28 28 28 28 28 29 29 30 31 31 31 31 31 31 30 29 28 28 28 28 30 31 32 33
42 42 42 42 41 41 41 41 41 40 40 39 39 39 40 40 39 39 40 40 41 42 42 42 43 43 42 42 43 44 46 47 47 47 45 43 41 37 35 33 32 31 29 28 28 28 28 27 27 27 27 28 28 29 29 29 30 31 30 29 28 28 29 29 30 31 32 33 32
Wind_Direction
312 314 315 317 318 319 320 320 319 319 319 318 317 316 315 314 313 312 312 311 310 309 308 308 307 307 307 307 307 307 306 306 306 305 305 304 303 302 301 299 298 295 293 290 288 287 286 286 287 288 290 291 292 292 293 294 296 296 296 296 295 294 293 292 290 287 285 282 281
314 315 316 317 319 319 320 320 319 319 318 317 315 314 313 313 312 311 310 310 309 308 307 306 306 306 305 305 305 305 305 305 304 304 303 303 302 302 301 299 298 295 293 291 289 287 285 285 285 287 288 290 291 291 292 293 295 296 296 296 295 295 293 291 290 288 286 283 281
315 316 317 319 320 320 320 320 319 318 317 315 314 313 312 312 311 310 309 308 308 307 306 305 305 304 304 304 304 304 304 303 303 303 303 302 302 301 301 299 298 296 294 292 289 287 285 284 284 285 286 288 289 290 291 292 294 295 296 295 295 295 293 291 290 289 287 284 281
317 318 320 320 321 321 320 319 318 316 315 314 313 312 312 311 310 309 309 308 307 306 305 305 304 304 304 303 303 303 303 302 302 302 302 301 301 301 301 300 298 297 294 292 290 288 286 284 284 284 285 286 287 288 289 291 292 294 294 295 295 295 294 292 291 290 287 284 282
319 320 320 321 321 320 319 317 316 315 313 313 312 312 311 311 310 309 308 308 307 306 305 305 304 304 303 303 303 302 302 301 301 301 301 301 301 300 300 300 298 297 295 293 291 288 286 284 283 283 284 284 285 286 287 289 291 292 294 295 295 295 295 293 292 290 288 285 282
320 321 321 321 320 319 317 316 314 313 312 312 311 311 311 311 310 309 308 307 306 306 305 305 304 304 303 303 302 302 301 301 301 300 300 300 300 300 299 299 298 297 296 294 292 289 287 285 284 283 283 284 284 285 286 288 290 292 293 294 295 296 295 294 292 291 289 285 282
321 321 321 320 319 318 316 314 313 312 311 311 311 311 310 310 309 308 307 307 306 306 305 305 304 304 304 303 303 302 302 301 301 300 300 300 299 299 299 299 298 297 296 295 293 291 288 286 285 284 284 284 285 285 285 287 289 291 292 293 294 295 295 294 293 291 288 284 282
320 320 320 319 318 316 315 313 312 312 311 310 310 310 309 309 308 307 307 306 306 306 306 306 305 305 305 304 303 303 302 302 301 300 300 299 299 299 298 298 298 297 296 295 294 292 290 288 286 285 285 285 285 284 285 286 288 290 292 293 293 294 294 294 293 291 288 285 282
320 319 318 318 316 315 314 313 312 311 310 310 309 309 309 308 307 307 307 307 307 307 307 307 307 306 306 305 304 304 303 303 302 301 300 299 299 299 298 298 297 297 296 295 294 292 291 289 287 285 284 284 284 284 284 286 288 289 290 291 292 293 293 293 292 291 289 286 284
319 318 317 317 316 314 313 312 311 310 310 309 309 309 308 308 308 308 308 308 308 308 308 308 308 308 307 306 305 305 305 304 304 303 301 300 300 299 299 298 298 297 296 295 294 293 291 289 287 285 283 283 283 283 284 285 287 288 289 289 290 291 292 292 292 291 289 286 284
318 318 317 316 315 314 313 312 311 310 310 309 309 309 309 309 309 309 309 310 310 310 310 310 310 309 308 308 307 307 306 306 305 304 303 302 301 300 300 299 299 297 296 295 294 293 291 289 287 285 284 283 283 284 284 285 286 287 288 289 290 291 292 291 291 290 288 286 283
317 317 316 316 315 314 313 312 312 311 311 311 311 311 311 311 311 311 311 312 311 311 311 311 311 311 310 309 309 309 308 307 307 306 305 304 303 302 301 301 300 299 297 295 294 293 291 289 287 285 284 283 283 283 283 284 285 286 287 288 290 291 291 291 291 289 288 286 284
317 317 316 316 315 315 314 313 313 313 313 313 313 313 313 313 314 314 314 313 313 313 313 312 312 312 312 311 311 310 309 309 308 307 307 306 305 304 303 302 302 301 299 297 295 294 292 290 288 286 285 284 282 282 282 283 284 285 286 288 289 289 290 290 290 289 288 286 284
317 316 316 316 316 315 315 315 315 315 315 315 315 315 315 315 315 315 315 314 314 314 314 313 313 313 313 312 312 311 310 310 309 309 308 307 306 306 305 304 304 303 301 298 296 295 294 292 290 289 287 285 284 283 282 282 283 284 285 286 287 288 289 289 289 288 288 286 284
316 316 316 316 316 316 316 316 316 316 316 316 316 317 316 316 316 316 315 315 315 314 314 314 314 313 313 313 312 312 311 310 310 309 308 307 307 306 306 305 304 303 301 299 297 296 295 294 293 291 289 287 285 284 283 282 282 283 283 284 285 286 287 288 288 287 286 285 284
316 316 317 317 317 317 317 317 317 317 317 317 317 317 317 316 316 316 316 315 315 314 314 314 315 314 314 313 313 312 311 310 309 308 307 306 305 305 305 304 304 303 301 299 297 295 294 294 293 291 289 287 285 284 282 282 282 282 283 283 284 285 286 286 286 285 284 283 282
316 317 317 317 317 317 317 317 317 317 317 316 316 316 316 316 316 316 316 315 315 315 315 315 315 315 315 314 313 312 311 309 307 305 304 303 303 303 303 303 303 303 302 299 296 293 291 291 291 291 289 288 286 284 283 282 282 282 282 283 284 285 286 285 285 284 283 282 281
316 316 317 317 317 317 317 317 316 316 316 316 316 316 316 316 316 316 315 315 316 316 316 315 315 316 316 315 313 311 309 306 305 303 302 302 302 302 302 302 302 302 301 299 295 291 289 289 290 291 291 289 287 286 284 283 283 283 283 284 285 285 286 285 285 284 283 282 281
316 316 316 317 317 316 316 316 316 316 315 315 316 316 316 316 316 316 316 316 316 317 317 317 316 316 315 314 312 310 308 305 304 303 302 302 302 302 302 302 302 302 301 299 295 291 289 289 291 292 293 292 290 288 286 285 284 284 284 285 285 286 286 286 286 285 284 283 281
315 316 316 316 316 315 315 315 315 315 315 315 316 316 316 316 317 317 317 317 317 317 317 317 317 316 314 312 311 309 308 306 304 304 303 303 303 303 302 302 302 302 301 299 296 293 291 291 292 294 295 294 292 290 288 287 286 286 286 286 286 286 287 287 287 287 286 284 283
315 315 315 315 314 315 315 315 315 315 315 315 316 316 317 317 317 318 318 318 318 318 317 317 316 314 312 311 310 309 308 307 306 305 304 304 304 304 303 303 302 301 300 298 296 294 292 292 293 295 296 296 294 292 290 289 288 288 287 287 287 287 287 288 288 287 287 286 285
314 314 314 314 314 314 314 314 314 315 315 315 316 317 317 318 318 319 319 318 318 318 317 316 314 313 311 310 309 308 308 307 306 306 306 305 305 304 304 303 301 300 298 297 295 293 292 292 293 295 297 296 295 293 292 290 289 289 289 289 289 289 289 288 288 288 288 287 287
313 313 313 313 313 314 314 314 314 315 315 316 317 318 318 319 319 319 319 319 318 317 317 315 313 311 310 309 308 307 307 306 306 306 306 306 305 304 303 302 300 299 297 295 294 292 291 292 293 295 296 296 295 294 293 292 291 290 290 290 291 291 290 290 290 290 289 289 289
313 313 313 313 314 314 314 315 315 316 316 317 318 319 319 320 319 319 319 318 317 316 315 314 312 310 309 308 306 305 305 305 305 305 306 306 305 304 303 302 300 298 297 295 293 291 290 290 292 293 294 294 293 293 292 292 291 291 291 291 291 291 291 291 291 290 290 290 290
314 314 314 314 315 315 315 316 316 317 317 318 319 319 320 320 319 319 318 317 316 315 314 313 311 309 307 306 305 304 303 303 303 304 304 305 305 304 303 302 301 299 297 295 292 290 289 288 288 289 290 291 291 290 289 289 289 289 288 288 288 288 289 289 289 289 288 288 287
314 315 315 315 316 316 316 317 317 318 318 319 319 319 319 319 318 317 316 315 314 313 312 311 309 307 305 303 303 302 302 302 302 303 303 304 304 304 303 302 301 300 298 295 292 290 288 287 287 287 288 289 289 288 287 286 286 285 284 284 283 283 283 284 284 284 283 283 281
316 316 316 317 317 317 317 318 318 318 319 319 319 318 318 318 317 316 314 313 312 311 310 308 306 304 303 301 300 300 301 301 302 302 302 302 303 303 302 302 301 300 298 295 293 290 289 288 287 287 288 288 288 288 287 286 285 284 283 282 281 281 280 281 281 281 280 278 277
317 317 318 318 318 318 318 318 318 318 318 318 318 317 317 316 315 313 312 311 310 309 308 306 304 303 301 300 299 299 299 300 301 301 302 302 302 301 301 301 301 300 298 295 293 291 289 288 287 287 288 289 289 289 288 288 287 286 284 283 282 282 282 282 282 282 280 278 277
318 318 318 319 318 318 318 318 318 318 317 317 316 315 315 314 313 312 311 310 309 308 306 305 303 301 299 298 298 298 299 300 300 301 301 301 301 301 301 301 301 301 300 297 293 291 289 288 287 288 289 290 290 290 290 289 289 288 286 285 284 284 284 284 284 283 282 281 281
318 319 319 318 318 318 318 317 317 317 316 315 314 313 312 312 311 310 310 309 308 307 305 303 302 300 298 298 298 298 298 299 300 301 301 301 301 301 302 302 303 302 301 299 295 292 289 288 288 289 290 290 291 291 291 290 290 289 288 286 286 285 284 284 283 283 283 284 282
319 319 318 318 317 317 316 316 316 315 314 313 312 312 311 310 310 309 309 308 307 306 305 303 301 300 299 298 298 298 299 299 300 301 301 301 301 302 302 303 303 303 303 301 297 293 291 289 290 290 290 291 291 291 291 291 290 289 287 286 284 283 282 281 280 279 278 277 275
318 318 317 317 316 315 315 314 314 313 312 312 311 310 310 309 309 309 309 308 307 306 305 303 302 300 300 300 299 299 300 300 300 301 302 302 303 303 303 303 303 304 303 302 299 295 292 291 290 290 290 290 290 291 291 291 290 288 286 284 282 280 278 277 275 274 272 271 272
317 317 316 315 314 314 313 313 312 312 311 311 310 310 309 309 310 310 309 308 307 306 304 303 302 301 300 300 300 300 301 301 301 302 303 303 304 304 304 304 304 304 303 303 300 297 293 291 290 289 290 290 290 291 291 291 290 287 285 282 280 278 276 275 273 272 271 271 272
316 316 314 313 312 312 311 311 311 311 311 310 310 310 310 310 310 309 309 308 307 305 304 302 301 301 300 301 301 301 301 300 301 303 304 305 305 305 305 305 304 304 304 303 300 297 293 290 289 288 288 289 291 291 291 290 289 287 284 281 279 277 275 273 272 271 270 271 272
315 314 313 312 311 311 310 310 311 311 310 310 310 310 310 310 309 309 308 308 307 305 304 303 302 301 302 302 301 301 301 301 303 305 306 307 307 306 305 304 304 304 304 303 301 297 293 290 288 287 288 291 292 292 291 290 288 286 284 282 280 277 275 273 272 270 270 270 272
313 312 311 310 310 310 310 310 310 310 310 310 310 310 310 310 309 309 308 308 306 305 304 304 303 303 303 303 302 302 303 303 305 306 307 308 307 306 305 305 305 305 304 303 302 299 295 292 290 290 291 293 293 292 291 289 288 286 285 283 281 279 277 275 273 272 271 272 273
312 311 310 309 309 309 310 310 310 311 310 310 310 309 309 309 309 309 308 307 306 306 305 304 304 304 303 303 304 304 305 306 306 306 307 307 307 307 306 306 305 305 305 304 303 301 298 295 293 293 294 294 293 291 289 288 287 286 285 284 283 281 279 277 276 275 275 275 277
311 310 309 309 309 309 310 310 311 311 310 310 310 309 309 309 309 308 308 307 306 305 305 305 304 304 305 305 306 306 307 306 305 305 306 307 307 308 307 307 306 305 305 305 304 302 300 298 296 295 295 294 292 290 288 287 286 285 284 284 283 282 281 280 280 280 279 280 281
310 309 309 309 309 310 310 311 311 310 310 309 309 309 309 309 309 308 307 307 306 305 305 305 305 305 306 307 307 307 306 306 305 305 306 307 308 308 308 307 306 305 306 306 305 304 302 301 299 297 296 294 292 290 288 286 286 285 284 284 283 283 283 283 284 284 284 283 284
309 309 309 309 310 310 311 311 310 310 309 309 309 309 309 309 308 307 307 306 305 305 305 305 305 306 307 308 307 307 306 305 305 306 307 308 309 309 308 306 306 306 306 307 307 307 306 304 302 300 298 295 293 290 288 287 287 286 285 285 285 286 287 287 287 287 286 285 285
309 310 310 310 311 311 311 311 310 310 310 309 308 308 308 308 307 307 306 306 306 306 306 306 306 307 308 308 308 307 306 305 306 307 308 309 310 309 308 307 307 307 308 310 311 312 311 309 306 302 299 296 293 290 289 288 288 287 286 286 287 288 289 289 289 287 286 285 285